Location: Spruce Knob
(38.6995°N, 79.5330°W)
Time: 19:58:42
(UTC-04:00)

MOZHAYETS 4 - Pass Details

Date: 27 May 2024
Orbit: 652 x 670 km, 98.3° (Epoch: 24 June)

Event Time Altitude Azimuth Distance (km) Brightness Sun altitude
Rises 03:23:45 0° 119° (ESE) 2,989 11.1 -22.8°
Reaches altitude 10° 03:26:56 10° 95° (E) 2,077 10.6 -22.5°
Maximum altitude 03:29:16 14° 64° (ENE) 1,816 10.7 -22.2°
Drops below altitude 10° 03:31:36 10° 33° (NNE) 2,078 11.4 -22.0°
Sets 03:34:47 0° 8° (N) 2,991 12.1 -21.6°
